Temperature
19 19 19 19 19 19 19 19 19 19 19 19 19 19 19 19 19 19 19 19 18 18 18 18 18 18 18 18 18 18 18 18 18 17 17 17 17 17 17 17 17 16 17
19 19 19 19 19 19 19 19 19 19 19 19 19 19 19 19 19 19 19 18 19 19 18 18 18 18 18 18 18 18 18 18 18 17 17 17 17 17 17 17 17 17 17
19 19 19 19 19 19 19 19 19 19 19 19 19 19 19 19 19 19 19 19 19 19 19 18 18 18 18 18 18 18 18 18 18 17 17 17 17 17 17 17 17 17 17
19 19 19 19 19 19 19 19 19 19 19 19 19 19 19 19 19 19 19 19 19 19 19 18 18 18 18 18 18 18 18 18 18 17 17 17 17 17 17 17 17 17 17
19 19 19 19 19 19 18 18 18 19 19 19 19 19 19 19 19 19 19 19 19 19 19 18 18 18 18 18 18 18 18 18 18 17 17 17 17 17 17 17 17 17 17
19 19 19 19 19 18 18 18 18 18 19 19 19 19 19 19 19 19 19 19 19 19 19 18 18 18 18 18 18 18 18 18 18 17 17 17 17 17 17 17 17 17 17
19 19 19 19 19 18 18 18 18 18 18 18 18 19 19 19 19 19 19 19 19 19 18 18 18 18 18 18 18 18 18 18 18 17 17 17 17 17 17 17 17 17 17
19 19 19 19 18 18 18 18 18 18 18 18 18 18 18 19 19 19 19 18 18 18 18 18 18 18 18 18 18 18 18 18 18 18 17 17 17 17 17 17 17 17 17
19 19 19 18 18 18 18 18 18 18 18 18 18 18 18 18 18 18 18 18 18 18 18 18 18 18 18 18 18 18 18 18 18 18 17 17 17 17 17 17 17 17 17
19 19 18 18 18 18 18 18 18 18 18 18 18 18 18 18 17 17 18 18 18 18 18 18 18 18 18 18 18 18 18 18 18 17 17 17 17 17 17 17 17 17 17
18 18 18 18 18 18 18 18 18 18 18 18 18 18 18 17 17 17 17 18 18 18 18 18 18 18 18 18 18 18 18 17 17 17 17 17 17 17 17 17 17 17 16
18 18 18 18 18 18 18 18 18 18 18 18 18 17 17 17 17 17 17 17 18 18 18 18 17 17 17 17 17 17 17 17 17 17 17 17 17 17 17 17 17 16 16
18 18 18 18 18 18 18 18 18 18 18 17 17 17 17 17 17 17 17 17 17 17 17 17 17 17 17 17 17 17 17 17 17 17 17 17 17 17 17 16 16 16 16
18 18 18 18 18 18 18 18 18 18 17 17 17 17 17 17 17 17 16 16 16 17 17 17 17 17 17 17 17 17 17 17 17 17 17 17 16 16 16 16 16 16 16
18 18 18 18 18 18 18 17 17 17 17 17 17 17 17 17 17 16 16 16 16 16 16 17 17 17 17 17 16 16 16 16 16 16 16 16 16 16 16 16 16 16 16
18 18 18 18 18 18 17 17 17 17 17 17 17 17 17 16 16 16 16 16 16 15 15 16 16 16 16 16 16 16 16 16 16 16 16 16 16 16 16 16 16 15 15
18 17 18 17 17 17 17 17 17 17 17 17 16 16 16 16 16 16 16 16 15 15 15 16 16 16 16 16 16 16 16 16 16 16 16 16 16 15 15 15 15 15 15
17 17 17 17 17 17 17 17 17 16 16 16 16 16 16 16 16 16 15 15 15 15 15 15 15 15 15 15 15 15 16 16 15 15 15 15 15 15 15 15 15 15 15
17 17 17 17 17 17 16 16 16 16 16 16 16 16 16 15 15 15 15 15 15 15 15 15 15 15 15 15 15 15 15 15 15 15 15 15 15 15 15 15 15 15 15
17 17 16 16 16 16 16 16 16 16 15 15 15 15 15 15 15 15 15 15 15 14 14 14 14 14 14 14 14 15 15 15 15 15 15 15 15 15 14 14 14 14 14
16 16 16 16 16 16 16 16 16 15 15 15 15 15 15 15 15 14 14 14 14 14 14 14 14 14 14 14 14 14 14 14 14 14 14 14 14 14 14 14 14 14 14
16 16 16 16 16 16 16 15 15 15 15 15 15 15 15 14 14 14 14 14 14 14 14 14 14 14 14 14 14 14 14 13 14 14 14 14 14 14 14 14 14 14 13
16 16 16 15 15 15 15 15 15 15 15 15 15 15 14 14 14 14 14 14 14 14 14 14 13 14 14 13 13 13 13 13 13 13 13 13 13 13 14 13 13 13 13
16 15 15 15 15 15 15 15 15 15 15 14 14 14 14 14 14 14 14 14 14 14 13 13 13 13 13 13 13 13 13 13 13 13 13 13 13 13 13 13 13 13 13
15 15 15 15 15 15 15 15 14 14 14 14 14 14 14 14 14 14 13 13 13 14 13 13 13 13 13 13 13 13 13 13 13 13 12 12 13 12 12 13 13 12 12
15 15 15 15 15 15 15 14 14 14 14 14 14 14 14 14 14 13 13 13 13 13 13 13 13 13 13 13 13 13 13 12 12 12 12 12 12 12 12 12 12 12 12
Wind_Speed
2 2 2 3 4 4 4 3 3 3 3 3 4 5 5 6 7 8 9 13 15 16 16 16 15 14 13 13 13 12 11 11 11 10 10 10 10 10 10 10 10 10 10
2 2 1 1 2 3 3 3 4 3 3 3 3 4 5 5 6 7 9 12 15 16 16 16 15 15 14 14 13 13 12 12 11 11 11 11 11 11 11 11 11 11 11
3 2 1 1 2 2 2 2 2 2 2 2 3 3 4 4 5 6 8 9 11 14 16 16 15 15 15 14 14 14 13 13 13 12 12 12 12 12 11 11 11 11 11
3 2 1 2 2 1 1 1 1 1 2 2 3 3 3 3 4 5 6 7 8 9 12 15 16 15 15 14 14 14 14 13 13 12 12 12 12 12 12 12 12 11 12
4 2 2 2 2 1 1 2 1 2 2 2 3 3 2 2 2 4 4 6 7 8 9 12 14 15 15 14 14 13 14 14 14 13 13 13 13 13 13 13 13 13 12
3 2 1 2 1 1 1 1 2 1 2 2 2 2 2 2 2 3 3 4 5 7 9 9 9 10 13 14 14 13 13 13 13 13 13 13 13 13 13 13 13 13 13
3 2 1 1 1 1 2 2 2 1 1 0 1 2 2 1 1 2 2 2 3 5 7 8 9 9 9 12 14 13 12 12 11 11 11 11 11 12 12 12 12 13 13
3 2 1 1 1 1 1 1 1 0 1 1 1 1 2 3 2 2 1 2 2 2 4 7 8 8 8 8 10 12 11 11 11 11 11 10 10 9 9 9 10 10 10
3 2 2 2 1 1 1 2 1 2 1 1 1 2 1 2 2 3 2 1 1 1 2 3 5 7 9 9 10 11 12 11 11 12 11 10 10 10 9 9 10 10 10
2 2 2 2 1 1 1 1 1 1 2 1 1 1 2 3 1 2 3 2 2 2 3 3 3 5 7 8 9 10 11 11 11 12 12 11 11 10 10 10 10 10 11
2 2 1 1 2 1 1 1 1 1 2 2 2 1 1 1 1 2 3 3 3 3 3 3 3 4 5 5 7 8 10 11 11 11 11 11 11 11 11 11 11 11 11
2 1 1 1 2 1 1 1 2 2 2 2 2 2 2 2 2 2 3 3 3 3 3 3 3 3 4 5 6 7 9 10 11 11 12 12 12 12 12 12 11 11 11
1 2 1 1 1 1 1 1 1 1 1 1 2 2 2 2 2 2 2 2 2 3 2 2 3 3 4 4 6 7 9 10 11 12 13 13 12 13 13 13 12 12 11
3 2 1 1 1 1 1 1 1 1 1 1 1 1 1 2 2 2 2 2 2 2 2 4 3 3 3 4 6 7 7 10 11 12 13 13 13 13 13 12 12 12 12
2 1 1 1 0 1 1 1 1 1 1 1 2 1 2 2 1 1 2 2 2 2 4 3 3 3 3 4 5 6 7 10 11 11 11 11 11 12 12 12 12 12 12
1 1 1 1 1 1 1 1 1 1 1 2 2 1 2 2 2 1 1 1 2 3 3 3 3 3 3 4 5 6 7 9 10 10 10 10 10 11 11 12 13 13 12
1 1 1 1 1 1 1 1 1 1 1 2 2 1 2 1 1 1 1 1 1 2 3 4 3 2 2 2 3 4 5 5 6 7 8 8 8 9 10 11 11 11 12
2 2 1 1 2 1 1 1 2 1 1 2 2 2 3 2 1 1 1 1 2 2 3 4 3 2 3 3 2 3 3 3 4 6 7 8 9 9 9 9 10 10 10
2 2 2 2 2 1 1 2 2 2 2 2 2 3 4 3 3 2 2 2 3 3 2 3 4 3 2 2 2 3 3 2 3 5 6 6 7 7 8 8 9 9 10
3 3 2 2 2 2 2 2 2 2 2 2 3 3 4 4 5 4 3 3 3 2 2 2 3 3 3 2 1 2 3 2 3 3 3 5 6 7 7 7 9 10 10
3 3 2 2 2 2 2 2 2 2 2 3 3 3 4 5 5 4 4 3 3 3 3 3 3 3 3 2 2 2 3 3 3 2 2 2 2 3 4 7 9 10 10
3 2 3 2 2 3 4 4 4 3 3 4 4 3 4 4 5 5 5 5 5 4 4 4 4 4 5 4 3 3 2 2 3 2 1 3 2 3 3 5 8 9 10
3 3 3 3 3 4 5 5 5 3 3 4 4 4 4 4 4 3 5 6 6 7 6 5 5 6 5 5 4 4 3 3 4 4 2 3 3 4 4 6 8 10 10
3 4 4 4 4 5 5 5 4 2 2 3 3 4 4 4 4 3 4 4 5 6 6 5 5 6 6 6 6 6 5 4 3 3 2 3 3 3 4 4 9 11 11
4 4 4 4 4 5 5 5 4 2 2 4 4 4 4 5 6 5 3 5 6 6 6 6 7 7 8 7 5 2 2 2 3 3 2 3 2 2 3 4 6 10 11
4 4 4 4 4 4 5 4 4 2 3 4 4 5 6 6 6 5 4 5 6 7 5 6 6 7 6 6 5 4 5 4 3 3 3 2 2 1 2 3 3 4 6
Wind_Direction
192 202 214 219 230 222 213 212 215 215 221 213 208 202 207 211 204 200 205 211 212 209 208 209 210 211 212 211 210 211 211 212 215 216 218 218 218 220 220 222 224 223 223
188 191 193 225 239 229 217 208 210 210 215 208 220 210 209 211 204 203 207 213 217 215 214 213 212 212 215 215 213 215 215 218 219 221 221 223 223 225 225 224 224 222 221
195 184 190 237 255 253 240 216 223 208 219 222 230 231 216 210 205 206 210 213 218 219 217 215 215 216 218 219 220 220 220 222 224 224 223 224 225 226 226 223 221 219 220
188 173 198 243 250 262 244 219 215 209 225 231 239 247 245 226 217 210 209 209 209 215 219 220 221 221 221 222 225 224 225 226 226 226 227 227 225 224 223 223 221 218 220
198 185 212 245 245 251 245 239 214 203 215 240 248 253 247 240 234 215 210 211 211 209 209 216 223 224 225 225 228 228 228 227 229 229 229 230 228 224 222 224 223 222 221
198 188 207 259 255 242 256 235 217 210 209 227 244 265 268 256 236 219 223 215 212 212 208 207 213 223 228 227 228 230 232 229 229 229 229 230 231 229 227 226 226 226 226
189 160 225 248 248 229 237 223 201 204 246 264 50 330 318 291 256 225 223 213 215 213 204 204 208 215 223 227 227 229 232 231 229 228 227 228 229 230 231 231 230 228 227
195 186 196 224 233 234 262 242 164 173 268 111 130 72 343 332 313 293 236 214 230 222 215 211 209 213 220 219 221 222 223 226 228 227 224 222 222 223 226 229 225 224 225
203 204 205 212 218 190 219 225 196 169 217 271 160 152 156 249 298 308 286 250 250 253 259 228 221 219 219 216 218 222 221 223 230 231 226 222 223 224 224 229 229 226 226
211 213 199 197 214 200 202 222 185 190 175 229 270 222 199 185 196 295 303 282 262 252 254 256 242 225 223 220 222 224 222 222 230 230 230 227 223 223 226 230 232 232 228
236 226 208 203 216 210 185 223 212 199 184 196 214 232 237 231 194 194 270 289 285 262 249 247 244 237 230 222 225 227 224 224 228 229 229 229 228 226 228 233 233 234 232
271 274 232 217 221 210 177 212 225 218 214 208 217 198 185 198 218 201 235 259 271 271 258 249 241 242 236 231 234 237 234 230 229 231 231 233 233 230 231 231 233 234 233
265 267 273 243 230 203 171 188 198 225 222 225 238 228 216 218 206 197 207 244 267 277 281 267 242 239 241 236 243 245 240 236 230 231 232 233 233 232 233 233 233 233 232
236 236 230 218 203 166 177 162 192 232 217 226 256 255 247 256 217 205 200 206 270 291 288 276 275 248 249 240 246 238 242 242 235 234 233 233 232 233 233 233 232 232 230
229 225 201 190 180 184 196 189 209 234 229 230 242 250 256 267 265 230 204 185 198 264 279 275 285 280 260 244 253 247 246 249 245 242 237 236 235 235 234 232 231 230 228
233 226 228 229 248 238 218 197 234 242 233 259 243 256 270 262 267 260 226 194 189 205 256 272 262 278 270 270 264 254 253 257 252 246 241 240 241 242 240 236 233 231 229
230 224 214 215 232 244 232 199 254 259 242 270 265 239 260 250 259 276 250 241 233 202 244 275 266 277 264 269 282 260 259 252 252 247 245 244 246 247 245 240 234 230 231
225 225 202 208 231 238 232 221 251 260 249 261 261 249 262 260 253 253 244 252 245 229 220 265 283 276 261 258 262 268 281 274 253 253 251 250 249 249 244 239 232 231 232
213 209 198 205 226 238 241 243 242 242 242 249 248 243 252 252 255 250 241 242 245 256 230 240 272 269 266 283 292 290 294 287 281 268 259 256 257 257 248 240 233 233 235
205 217 209 203 217 237 254 253 244 244 256 262 260 256 257 249 245 243 243 241 236 245 250 252 270 277 270 273 257 274 297 291 289 287 271 264 259 257 252 245 239 237 237
209 205 192 211 236 242 253 250 242 242 248 257 259 258 249 257 263 252 243 231 223 228 241 249 263 275 272 281 266 253 269 279 281 262 273 279 265 254 250 250 245 239 237
194 197 205 210 231 250 258 249 231 235 239 240 248 257 261 268 270 268 266 251 234 230 235 238 252 259 261 255 255 254 254 282 284 259 233 272 249 256 250 236 243 242 240
202 205 223 219 231 248 249 253 246 230 233 235 238 246 262 275 266 257 273 281 275 267 251 236 240 249 250 243 236 247 240 235 249 252 226 260 254 259 255 248 243 243 242
213 220 226 232 238 251 249 255 255 238 242 252 250 239 240 264 261 248 256 276 278 276 270 256 243 249 250 241 227 230 234 247 267 260 200 238 252 252 264 252 242 240 242
229 230 228 228 237 254 252 246 233 232 241 257 261 255 244 248 261 252 245 264 279 282 280 275 275 270 272 267 247 226 228 225 268 269 227 212 248 269 267 259 250 243 245
235 235 240 238 237 244 250 237 218 218 245 257 265 264 257 252 256 248 238 245 262 272 281 293 293 291 283 278 258 218 210 219 245 263 240 207 240 258 283 267 253 255 251
Height
1540 1540 1540 1540 1539 1539 1540 1541 1541 1541 1542 1542 1543 1543 1544 1544 1544 1545 1545 1546 1546 1547 1547 1548 1548 1548 1548 1549 1549 1549 1549 1550 1550 1550 1550 1551 1551 1552 1552 1553 1553 1554 1554
1539 1539 1540 1539 1539 1539 1539 1540 1540 1540 1540 1541 1541 1542 1542 1543 1543 1544 1544 1544 1545 1545 1546 1546 1547 1546 1547 1547 1547 1547 1547 1548 1548 1548 1548 1549 1549 1550 1550 1550 1551 1551 1552
1539 1539 1539 1539 1539 1538 1538 1538 1539 1539 1539 1539 1540 1540 1541 1541 1541 1541 1542 1542 1543 1543 1544 1545 1545 1545 1545 1545 1545 1545 1545 1546 1545 1546 1546 1546 1547 1547 1547 1548 1548 1549 1549
1539 1539 1538 1538 1538 1537 1537 1537 1537 1537 1538 1538 1538 1539 1539 1540 1540 1540 1540 1540 1541 1541 1542 1542 1543 1543 1543 1543 1543 1543 1542 1543 1543 1543 1543 1543 1544 1544 1545 1545 1545 1546 1546
1538 1537 1537 1537 1537 1536 1536 1536 1536 1536 1536 1536 1537 1537 1538 1538 1538 1538 1538 1538 1539 1539 1540 1540 1540 1540 1540 1540 1540 1540 1540 1540 1540 1540 1541 1541 1541 1541 1542 1542 1542 1543 1543
1537 1537 1536 1536 1535 1535 1534 1534 1534 1535 1535 1535 1535 1536 1536 1536 1536 1536 1537 1537 1537 1537 1537 1538 1537 1538 1538 1538 1538 1538 1538 1538 1537 1537 1538 1538 1538 1538 1539 1539 1540 1540 1540
1536 1536 1535 1534 1534 1533 1533 1532 1532 1533 1533 1533 1534 1534 1534 1535 1535 1535 1535 1535 1535 1535 1535 1535 1535 1535 1535 1535 1535 1535 1535 1534 1535 1535 1535 1535 1535 1536 1536 1536 1537 1537 1537
1535 1535 1534 1533 1533 1532 1531 1531 1531 1531 1532 1532 1533 1532 1532 1534 1533 1533 1533 1533 1533 1533 1532 1532 1532 1532 1532 1532 1532 1532 1532 1532 1532 1532 1532 1532 1533 1533 1533 1533 1534 1534 1534
1535 1534 1533 1533 1532 1531 1530 1529 1529 1530 1530 1531 1532 1532 1532 1531 1531 1531 1531 1531 1530 1530 1530 1529 1529 1529 1529 1529 1529 1530 1529 1529 1529 1529 1529 1530 1530 1530 1530 1530 1531 1531 1531
1534 1533 1533 1532 1531 1530 1529 1529 1529 1529 1529 1529 1530 1530 1531 1531 1530 1529 1528 1528 1528 1528 1528 1527 1527 1526 1526 1526 1526 1526 1527 1527 1527 1527 1527 1527 1527 1527 1527 1527 1527 1528 1528
1533 1532 1531 1531 1530 1529 1529 1529 1528 1528 1528 1528 1528 1528 1528 1528 1528 1527 1526 1526 1525 1525 1525 1525 1524 1524 1523 1523 1523 1523 1523 1523 1524 1524 1524 1524 1524 1524 1524 1524 1524 1524 1524
1531 1531 1530 1529 1529 1528 1527 1527 1527 1527 1526 1526 1526 1526 1526 1525 1525 1525 1524 1523 1522 1522 1522 1522 1521 1521 1521 1521 1521 1521 1521 1521 1520 1521 1521 1521 1521 1520 1520 1520 1521 1521 1521
1530 1529 1529 1528 1527 1527 1526 1525 1525 1524 1524 1523 1523 1523 1523 1523 1523 1523 1522 1520 1520 1519 1519 1519 1518 1518 1518 1518 1518 1518 1518 1518 1517 1517 1517 1517 1517 1517 1517 1517 1517 1517 1518
1528 1527 1527 1526 1526 1525 1524 1524 1523 1522 1522 1521 1521 1520 1520 1520 1520 1520 1520 1519 1517 1516 1516 1516 1516 1515 1515 1515 1515 1515 1514 1514 1514 1514 1514 1514 1514 1514 1513 1513 1514 1514 1514
1526 1526 1525 1525 1524 1523 1522 1521 1520 1520 1519 1518 1518 1517 1517 1517 1517 1517 1517 1517 1517 1515 1513 1513 1513 1513 1512 1512 1512 1512 1511 1511 1511 1510 1510 1510 1510 1510 1510 1510 1510 1510 1510
1524 1524 1523 1523 1522 1521 1520 1519 1518 1517 1517 1516 1515 1515 1514 1514 1514 1513 1513 1514 1513 1513 1511 1510 1510 1509 1509 1509 1509 1508 1508 1507 1507 1507 1506 1506 1506 1506 1506 1505 1506 1506 1506
1521 1521 1521 1520 1519 1518 1517 1516 1515 1515 1514 1513 1513 1512 1512 1511 1511 1510 1511 1511 1510 1510 1508 1508 1507 1507 1506 1505 1505 1505 1504 1503 1503 1502 1502 1502 1501 1501 1501 1501 1501 1502 1502
1519 1519 1518 1517 1517 1516 1515 1513 1513 1512 1511 1511 1510 1510 1509 1509 1508 1508 1507 1507 1507 1506 1506 1504 1504 1503 1502 1502 1501 1501 1500 1499 1499 1498 1498 1497 1497 1497 1497 1497 1497 1497 1498
1516 1516 1515 1515 1514 1513 1512 1511 1510 1510 1509 1508 1508 1507 1507 1506 1505 1504 1504 1504 1504 1503 1503 1501 1500 1500 1499 1499 1498 1497 1496 1496 1495 1494 1494 1493 1493 1492 1492 1492 1493 1493 1493
1513 1513 1512 1512 1511 1511 1509 1508 1508 1507 1506 1506 1505 1504 1503 1503 1502 1502 1501 1500 1500 1500 1499 1498 1497 1496 1496 1495 1494 1493 1492 1491 1491 1490 1490 1489 1489 1488 1488 1488 1488 1489 1489
1510 1509 1509 1509 1508 1508 1507 1506 1505 1504 1504 1503 1502 1501 1501 1501 1500 1499 1498 1497 1497 1496 1495 1494 1493 1492 1492 1491 1490 1489 1488 1487 1486 1486 1485 1485 1485 1484 1484 1484 1484 1484 1484
1506 1506 1506 1506 1505 1504 1503 1503 1502 1501 1501 1500 1499 1498 1498 1497 1496 1496 1495 1494 1494 1493 1492 1491 1490 1489 1488 1487 1487 1486 1485 1484 1482 1482 1481 1481 1481 1480 1480 1480 1480 1480 1480
1503 1503 1502 1502 1501 1501 1500 1500 1499 1498 1498 1496 1496 1495 1494 1493 1492 1492 1491 1491 1490 1489 1489 1488 1486 1485 1484 1484 1483 1482 1481 1480 1479 1478 1478 1476 1477 1476 1476 1475 1476 1476 1476
1500 1499 1499 1498 1498 1497 1497 1496 1496 1495 1494 1493 1492 1491 1490 1489 1489 1488 1487 1486 1485 1485 1484 1484 1483 1481 1481 1480 1480 1479 1478 1477 1476 1475 1474 1473 1472 1472 1471 1471 1471 1471 1471
1496 1495 1495 1494 1493 1493 1493 1492 1492 1491 1490 1489 1488 1488 1487 1486 1485 1484 1483 1482 1481 1481 1480 1480 1479 1478 1477 1476 1476 1475 1474 1472 1471 1470 1470 1469 1468 1467 1467 1467 1467 1467 1467
1493 1492 1491 1491 1490 1489 1489 1489 1488 1487 1486 1485 1484 1484 1483 1482 1481 1480 1479 1478 1476 1476 1476 1475 1474 1473 1472 1472 1471 1470 1469 1468 1467 1466 1465 1465 1464 1464 1462 1462 1462 1463 1462